Weather in Delnaya Dubrava

Russia / Tambov Oblast     53°22′15″N   41°17′50″E
temp.,
°C
wind,
m/s
gust,
m/s
humid.,
%
clouds,
%
prec.,
mm/h
press.,
hPa
HPBL,
m
4 march, thu
thu400:00−2w61294100 0.3 1012580
03:00−2wsw6129199 0.3 1010506
06:00−2wsw71496100 0.1 1007598
09:00−1wsw91691100 0.3 1006592
12:00+1wsw9158797 0.0 1004760
15:000wsw8148498 0.0 1003918
18:000wsw61292100 0.1 1002770
21:000wsw51097100 0.4 1001631
5 march, fri
fri500:00−1w41096100 0.4 1001514
03:00−2w4997100 0.8 1002374
06:00−4n3796100 0.4 1003230
09:00−5nw489597 0.5 1006284
12:00−4nw468943 0.0 1008404
15:00−4wnw358922 0.0 1011389
18:00−7w349335 0.0 101251
21:00−8w339351 0.0 101429
6 march, sat
sat600:00−9wnw239388 0.0 101521
03:00−10nw129194 0.0 101621
06:00−11nne1190100 0.0 101621
09:00−9ene2292100 0.0 101653
12:00−6e118656 0.0 1016232
15:00−5n108629 0.0 1015264
18:00−9nnw129446 0.0 101421
21:00−8wnw119772 0.3 101621
7 march, sun
sun700:00−10wnw349686 0.1 101659
03:00−12wnw449681 0.2 101677
06:00−14wsw479432 0.0 101594
09:00−10sw7138942 0.0 1013429
12:00−5sw91580100 0.0 1010929
15:00−4sw101879100 0.0 10051240
18:00−3wsw101893100 1.4 10021185
21:00−4nw51482100 3.4 10021034
8 march, mon
mon800:00−10w347998 0.0 100349
03:00−11sw477749 0.0 100392
06:00−7ssw5129598 0.0 1001382
09:00−5sw7119299 0.1 999767
12:00−6wnw111483100 0.4 10001201
15:00−7w10158192 0.4 10041479
18:00−9w81581100 0.1 1008870
21:00−11w5118851 0.1 1011270